Location: Days
(41.3591°N, 106.7339°W)
Time: 18:22:28
(UTC+00:00)

RS-15 - Pass Details

Date: 05 July 2022
Orbit: 1881 x 2163 km, 64.8° (Epoch: 15 August)

Event Time Altitude Azimuth Distance (km) Brightness Sun altitude
Rises 03:40:10 0° 317° (NW) 5,686 12.8 -9.3°
Reaches altitude 10° 03:44:22 10° 328° (NNW) 4,690 11.4 -9.9°
Maximum altitude 03:55:06 32° 28° (NNE) 3,218 9.3 -11.4°
Drops below altitude 10° 04:05:34 10° 89° (E) 4,602 9.6 -12.7°
Enters shadow 04:09:01 - 98° (E) 5,423 9.9 -13.2°
